FW8756 Weather Reports


Display with metric or nautical units.
time (UTC)temp
F
wind
direction
speed
MPH
gust
MPH
rain 1hr
in
rain 24hr
in
rain mn
in
humidity
%
barometer
mb
20260902004319 78 145 0.0 0.0 0.00 0.00 0.00 93 1011.5
20260902003814 78 189 0.0 0.0 0.00 0.00 0.00 93 1011.5
20260902003309 78 150 0.0 0.0 0.00 0.00 0.00 93 1011.8
20260902002805 78 151 0.0 0.0 0.00 0.00 0.00 93 1011.9
20260902002259 78 158 0.0 0.0 0.00 0.00 0.00 93 1011.7
20260902001754 78 146 0.0 0.0 0.00 0.00 0.00 93 1011.9
20260902001250 78 119 0.0 0.0 0.00 0.00 0.00 93 1011.6
20260902000749 78 145 0.0 0.0 0.00 0.00 0.00 93 1011.7
20260902000244 79 148 0.0 0.0 0.00 0.00 0.00 93 1011.7
20260901235739 78 148 0.0 0.0 0.00 0.00 0.00 93 1011.7
20260901235234 79 148 0.0 0.0 0.00 0.00 0.00 93 1011.5
20260901234733 78 151 0.0 0.0 0.00 0.00 0.00 93 1011.3
20260901234233 78 150 0.0 0.0 0.00 0.00 0.00 93 1011.5
20260901233728 78 149 0.0 0.0 0.00 0.00 0.00 93 1011.5
20260901233225 78 163 0.0 0.0 0.00 0.00 0.00 93 1011.8
20260901232725 78 151 0.0 0.0 0.00 0.00 0.00 93 1011.9
20260901232220 78 143 0.0 0.0 0.00 0.00 0.00 93 1011.9
20260901231716 77 150 0.0 0.0 0.00 0.00 0.00 93 1011.9
20260901231212 77 156 0.0 0.0 0.00 0.00 0.00 92 1011.8
20260901230708 77 153 0.0 0.0 0.00 0.00 0.00 92 1011.8
20260901230207 77 147 0.0 0.0 0.00 0.00 0.00 92 1012.0
20260901225703 77 136 0.0 0.0 0.00 0.00 0.00 92 1012.0
20260901225157 77 145 0.0 0.0 0.00 0.00 0.00 92 1012.2
20260901224653 77 157 0.0 1.0 0.00 0.00 0.00 92 1012.1
20260901224149 76 166 0.0 0.0 0.00 0.00 0.00 92 1012.2
20260901223644 76 154 0.0 0.0 0.00 0.00 0.00 92 1012.3
20260901223139 76 156 0.0 0.0 0.00 0.00 0.00 92 1012.3
20260901222636 77 162 0.0 0.0 0.00 0.00 0.00 91 1012.9
20260901222132 77 152 0.0 0.0 0.00 0.00 0.00 91 1012.8
20260901221627 77 144 0.0 0.0 0.00 0.00 0.00 91 1012.9
20260901221123 77 164 0.0 0.0 0.00 0.00 0.00 90 1013.1
20260901220622 77 156 0.0 0.0 0.00 0.00 0.00 90 1013.2
20260901220121 77 155 0.0 0.0 0.00 0.00 0.00 89 1013.3
20260901215619 77 153 0.0 1.0 0.00 0.00 0.00 89 1013.3
20260901215114 77 150 0.0 0.0 0.00 0.00 0.00 88 1013.1
20260901214613 78 81 1.0 2.0 0.00 0.00 0.00 86 1013.0
20260901214113 81 153 1.0 2.0 0.00 0.00 0.00 81 1013.1
20260901213607 83 25 5.0 9.0 0.00 0.00 0.00 78 1012.9
20260901213101 87 21 2.0 3.0 0.00 0.00 0.00 69 1013.0
20260901212601 90 110 1.0 1.0 0.00 0.00 0.00 63 1012.5
20260901212058 92 181 0.0 0.0 0.00 0.00 0.00 60 1012.1
20260901211553 92 151 0.0 0.0 0.00 0.00 0.00 60 1011.9
20260901211050 92 167 0.0 0.0 0.00 0.00 0.00 61 1012.0
20260901210544 92 148 0.0 0.0 0.00 0.00 0.00 62 1011.9
20260901210041 92 241 3.0 3.0 0.00 0.00 0.00 60 1011.9
20260901205536 92 155 1.0 2.0 0.00 0.00 0.00 61 1011.8
20260901205030 93 325 2.0 2.0 0.00 0.00 0.00 60 1012.1
20260901204527 93 165 1.0 1.0 0.00 0.00 0.00 61 1012.0
20260901204027 92 154 0.0 0.0 0.00 0.00 0.00 61 1012.0
20260901203521 91 291 3.0 3.0 0.00 0.00 0.00 63 1012.1
20260901203016 91 238 4.0 5.0 0.00 0.00 0.00 64 1012.0
20260901202511 92 314 4.0 5.0 0.00 0.00 0.00 64 1012.6
20260901202007 92 179 3.0 3.0 0.00 0.00 0.00 64 1012.5
20260901201502 91 174 1.0 2.0 0.00 0.00 0.00 65 1012.8
20260901200956 91 249 3.0 3.0 0.00 0.00 0.00 64 1013.0
20260901200451 91 287 3.0 3.0 0.00 0.00 0.00 64 1013.0
20260901195950 91 259 3.0 5.0 0.00 0.00 0.00 64 1013.1
20260901195449 91 246 4.0 5.0 0.00 0.00 0.00 63 1013.4
20260901194943 92 219 3.0 3.0 0.00 0.00 0.00 62 1013.4
20260901194438 93 152 0.0 0.0 0.00 0.00 0.00 61 1013.1
20260901193935 93 218 0.0 0.0 0.00 0.00 0.00 62 1013.5
20260901193434 93 298 3.0 3.0 0.00 0.00 0.00 61 1013.5
20260901192933 92 153 0.0 0.0 0.00 0.00 0.00 62 1013.4
20260901192429 91 117 0.0 0.0 0.00 0.00 0.00 64 1013.5
20260901191925 92 157 0.0 0.0 0.00 0.00 0.00 61 1013.3
20260901191422 93 264 5.0 6.0 0.00 0.00 0.00 61 1013.2
20260901190917 93 190 1.0 1.0 0.00 0.00 0.00 61 1013.2
20260901190417 94 164 1.0 1.0 0.00 0.00 0.00 60 1013.0
20260901185915 94 200 0.0 1.0 0.00 0.00 0.00 61 1013.1
20260901185414 92 157 0.0 1.0 0.00 0.00 0.00 63 1013.3
20260901184909 93 351 3.0 5.0 0.00 0.00 0.00 63 1013.5
20260901184405 93 166 1.0 1.0 0.00 0.00 0.00 63 1013.3
20260901183905 91 176 1.0 1.0 0.00 0.00 0.00 64 1013.6
20260901183404 91 252 3.0 3.0 0.00 0.00 0.00 64 1013.4
20260901182901 91 175 2.0 2.0 0.00 0.00 0.00 65 1013.4
20260901182355 93 203 1.0 1.0 0.00 0.00 0.00 64 1013.5
20260901181850 93 247 1.0 2.0 0.00 0.00 0.00 62 1013.6
20260901181345 94 204 3.0 3.0 0.00 0.00 0.00 62 1013.8
20260901180844 92 166 0.0 0.0 0.00 0.00 0.00 64 1013.7
20260901180343 91 250 3.0 3.0 0.00 0.00 0.00 65 1013.9
20260901175842 93 141 0.0 0.0 0.00 0.00 0.00 63 1014.0
20260901175337 91 145 0.0 0.0 0.00 0.00 0.00 64 1014.1
20260901174832 90 250 2.0 3.0 0.00 0.00 0.00 67 1014.1
20260901174327 89 326 1.0 2.0 0.00 0.00 0.00 68 1014.2
20260901173823 89 145 2.0 2.0 0.00 0.00 0.00 69 1014.4
20260901173318 89 185 2.0 2.0 0.00 0.00 0.00 69 1014.6
20260901172815 89 160 3.0 3.0 0.00 0.00 0.00 69 1014.8
20260901172314 88 152 0.0 1.0 0.00 0.00 0.00 70 1014.8
20260901171811 88 358 2.0 2.0 0.00 0.00 0.00 70 1014.9
20260901171311 89 218 2.0 2.0 0.00 0.00 0.00 70 1015.0
20260901170811 89 155 2.0 2.0 0.00 0.00 0.00 71 1015.0
20260901170311 88 260 2.0 2.0 0.00 0.00 0.00 71 1015.0
20260901165809 88 161 0.0 0.0 0.00 0.00 0.00 71 1015.1
20260901165306 88 273 1.0 1.0 0.00 0.00 0.00 72 1015.1
20260901164801 88 281 5.0 5.0 0.00 0.00 0.00 71 1015.1
20260901164256 88 155 1.0 1.0 0.00 0.00 0.00 71 1015.4
20260901163751 88 143 0.0 0.0 0.00 0.00 0.00 71 1015.3
20260901163251 89 150 0.0 1.0 0.00 0.00 0.00 70 1015.2
20260901162746 88 153 1.0 2.0 0.00 0.00 0.00 71 1015.3
20260901162245 88 146 0.0 0.0 0.00 0.00 0.00 70 1015.4
20260901161744 89 27 4.0 6.0 0.00 0.00 0.00 70 1015.4
20260901161239 89 137 1.0 1.0 0.00 0.00 0.00 71 1015.3
20260901160735 88 135 1.0 2.0 0.00 0.00 0.00 72 1015.3
20260901160231 88 143 4.0 7.0 0.00 0.00 0.00 72 1015.3
20260901155729 87 164 0.0 0.0 0.00 0.00 0.00 72 1015.2
20260901155224 87 342 5.0 5.0 0.00 0.00 0.00 72 1015.1
20260901154719 87 287 5.0 6.0 0.00 0.00 0.00 72 1015.2
20260901154209 88 157 1.0 2.0 0.00 0.00 0.00 72 1015.2
20260901153704 87 155 0.0 1.0 0.00 0.00 0.00 72 1015.3
20260901153203 87 48 2.0 2.0 0.00 0.00 0.00 72 1015.3
20260901152658 87 19 1.0 1.0 0.00 0.00 0.00 73 1015.3
20260901152156 87 9 2.0 2.0 0.00 0.00 0.00 73 1015.3
20260901151653 87 44 1.0 1.0 0.00 0.00 0.00 73 1015.5
20260901151152 87 48 1.0 1.0 0.00 0.00 0.00 74 1015.2
20260901150651 87 66 1.0 1.0 0.00 0.00 0.00 74 1015.3
20260901150149 86 111 0.0 0.0 0.00 0.00 0.00 75 1015.4
20260901145648 86 350 0.0 2.0 0.00 0.00 0.00 76 1015.4
20260901145148 87 113 0.0 1.0 0.00 0.00 0.00 75 1015.5
20260901144644 86 157 0.0 0.0 0.00 0.00 0.00 76 1015.3
20260901144138 87 106 1.0 1.0 0.00 0.00 0.00 75 1015.4
20260901143633 87 57 1.0 1.0 0.00 0.00 0.00 75 1015.2
20260901143130 86 145 2.0 2.0 0.00 0.00 0.00 76 1015.5
20260901142626 86 142 0.0 1.0 0.00 0.00 0.00 77 1015.5
20260901142125 86 191 1.0 1.0 0.00 0.00 0.00 77 1015.6
20260901141619 86 149 1.0 1.0 0.00 0.00 0.00 75 1015.5
20260901141114 86 155 0.0 0.0 0.00 0.00 0.00 77 1015.5
20260901140613 84 147 1.0 1.0 0.00 0.00 0.00 80 1015.6
20260901140112 83 156 0.0 0.0 0.00 0.00 0.00 81 1015.8
20260901135612 82 167 0.0 0.0 0.00 0.00 0.00 82 1015.3
20260901135107 81 181 0.0 0.0 0.00 0.00 0.00 85 1015.7
20260901134603 80 146 0.0 0.0 0.00 0.00 0.00 87 1015.4
20260901134058 80 153 0.0 0.0 0.00 0.00 0.00 88 1015.5
20260901133557 79 148 0.0 0.0 0.00 0.00 0.00 89 1015.3
20260901133056 79 151 0.0 0.0 0.00 0.00 0.00 89 1015.5
20260901132551 78 152 0.0 0.0 0.00 0.00 0.00 89 1015.3
20260901132051 78 151 0.0 0.0 0.00 0.00 0.00 89 1015.4
20260901131550 78 150 0.0 0.0 0.00 0.00 0.00 90 1015.2
20260901131045 78 149 0.0 0.0 0.00 0.00 0.00 90 1015.2
20260901130540 78 163 0.0 0.0 0.00 0.00 0.00 90 1015.3
20260901130038 78 143 0.0 0.0 0.00 0.00 0.00 90 1014.8
20260901125537 78 148 0.0 0.0 0.00 0.00 0.00 90 1015.0
20260901125033 78 147 0.0 0.0 0.00 0.00 0.00 90 1015.1
20260901124532 78 131 0.0 0.0 0.00 0.00 0.00 90 1014.9
20260901124027 78 68 0.0 1.0 0.00 0.00 0.00 90 1015.0
20260901123522 78 139 0.0 0.0 0.00 0.00 0.00 90 1015.0
20260901123022 78 152 0.0 0.0 0.00 0.00 0.00 90 1014.8
20260901122520 78 153 0.0 0.0 0.00 0.00 0.00 90 1014.8
20260901122020 78 85 0.0 0.0 0.00 0.00 0.00 90 1014.5
20260901121515 78 128 0.0 0.0 0.00 0.00 0.00 91 1014.5
20260901121010 78 145 1.0 1.0 0.00 0.00 0.00 91 1014.7
20260901120509 78 137 0.0 1.0 0.00 0.00 0.00 91 1014.8
20260901120005 78 113 0.0 0.0 0.00 0.00 0.00 90 1014.8
20260901115500 78 151 0.0 0.0 0.00 0.00 0.00 90 1014.6
20260901114957 78 150 0.0 0.0 0.00 0.00 0.00 90 1014.7
20260901114453 78 69 0.0 0.0 0.00 0.00 0.00 90 1014.5
20260901113951 78 68 0.0 0.0 0.00 0.00 0.00 90 1014.5
20260901113450 78 69 0.0 0.0 0.00 0.00 0.00 90 1014.4
20260901112946 78 66 0.0 0.0 0.00 0.00 0.00 90 1014.3
20260901112441 78 66 0.0 0.0 0.00 0.00 0.00 90 1014.3
20260901111936 78 66 0.0 0.0 0.00 0.00 0.00 90 1014.4
20260901111434 78 66 0.0 0.0 0.00 0.00 0.00 90 1014.4
20260901110932 78 65 0.0 0.0 0.00 0.00 0.00 89 1014.2
20260901110428 78 64 0.0 0.0 0.00 0.00 0.00 89 1014.3
20260901105925 78 66 0.0 0.0 0.00 0.00 0.00 89 1014.1
20260901105420 78 68 0.0 0.0 0.00 0.00 0.00 89 1014.3
20260901104915 78 66 0.0 0.0 0.00 0.00 0.00 89 1014.2
20260901104411 78 64 0.0 0.0 0.00 0.00 0.00 89 1014.5
20260901103906 78 64 0.0 0.0 0.00 0.00 0.00 89 1014.1
20260901103406 77 63 0.0 0.0 0.00 0.00 0.00 89 1014.3
20260901102901 78 63 0.0 0.0 0.00 0.00 0.00 89 1014.1
20260901102355 78 63 0.0 0.0 0.00 0.00 0.00 89 1014.2
20260901101851 78 63 0.0 0.0 0.00 0.00 0.00 89 1014.2
20260901101345 78 63 0.0 0.0 0.00 0.00 0.00 89 1014.2
20260901100844 77 66 0.0 0.0 0.00 0.00 0.00 89 1014.1
20260901100339 78 66 0.0 0.0 0.00 0.00 0.00 89 1014.0
20260901095839 78 67 0.0 0.0 0.00 0.00 0.00 89 1013.9
20260901095336 78 138 0.0 0.0 0.00 0.00 0.00 89 1014.1
20260901094830 78 155 0.0 0.0 0.00 0.00 0.00 89 1014.3
20260901094325 78 162 0.0 0.0 0.00 0.00 0.00 89 1014.1
20260901093820 78 146 0.0 0.0 0.00 0.00 0.00 89 1014.2
20260901093319 78 147 0.0 0.0 0.00 0.00 0.00 89 1014.2
20260901092816 78 155 0.0 0.0 0.00 0.00 0.00 89 1014.1
20260901092311 78 149 0.0 0.0 0.00 0.00 0.00 89 1014.3
20260901091807 78 150 0.0 0.0 0.00 0.00 0.00 88 1014.1
20260901091306 78 149 0.0 0.0 0.00 0.00 0.00 88 1014.1
20260901090802 78 148 0.0 0.0 0.00 0.00 0.00 88 1014.2
20260901090256 78 151 0.0 0.0 0.00 0.00 0.00 88 1014.3
20260901085753 78 147 0.0 0.0 0.00 0.00 0.00 88 1014.1
20260901085248 78 144 0.0 0.0 0.00 0.00 0.00 88 1014.0
20260901084744 78 149 0.0 0.0 0.00 0.00 0.00 88 1014.1
20260901084240 78 150 0.0 0.0 0.00 0.00 0.00 88 1014.2
20260901083740 78 153 0.0 0.0 0.00 0.00 0.00 88 1014.2
20260901083239 78 150 0.0 0.0 0.00 0.00 0.00 88 1014.2
20260901082738 78 150 0.0 0.0 0.00 0.00 0.00 88 1014.4
20260901082233 78 147 0.0 0.0 0.00 0.00 0.00 88 1014.2
20260901081729 78 149 0.0 0.0 0.00 0.00 0.00 88 1014.2
20260901081229 78 151 0.0 0.0 0.00 0.00 0.00 88 1014.7
20260901080724 78 134 0.0 0.0 0.00 0.00 0.00 88 1014.2
20260901080223 79 149 0.0 0.0 0.00 0.00 0.00 87 1014.4
20260901075722 79 150 0.0 0.0 0.00 0.00 0.00 87 1014.5
20260901075218 79 148 0.0 0.0 0.00 0.00 0.00 87 1014.4
20260901074712 79 154 0.0 0.0 0.00 0.00 0.00 87 1014.3
20260901074208 79 150 0.0 0.0 0.00 0.00 0.00 87 1014.6
20260901073704 79 125 0.0 0.0 0.00 0.00 0.00 87 1014.5
20260901073159 80 144 0.0 0.0 0.00 0.00 0.00 87 1014.5
20260901072654 80 141 0.0 0.0 0.00 0.00 0.00 87 1014.6
20260901072148 80 147 0.0 0.0 0.00 0.00 0.00 86 1014.3
20260901071643 80 140 0.0 0.0 0.00 0.00 0.00 86 1014.4
20260901071143 80 148 0.0 0.0 0.00 0.00 0.00 86 1014.3
20260901070637 80 149 0.0 0.0 0.00 0.00 0.00 86 1014.4
20260901070133 80 150 0.0 0.0 0.00 0.00 0.00 86 1014.4
20260901065631 80 151 0.0 0.0 0.00 0.00 0.00 85 1014.5
20260901065126 80 130 0.0 0.0 0.00 0.00 0.00 85 1014.5
20260901064623 80 147 0.0 0.0 0.00 0.00 0.00 85 1014.3
20260901064120 80 151 0.0 0.0 0.00 0.00 0.00 85 1014.6
20260901063616 81 146 0.0 0.0 0.00 0.00 0.00 85 1014.7
20260901063112 81 137 0.0 0.0 0.00 0.00 0.00 85 1014.5
20260901062608 81 136 0.0 0.0 0.00 0.00 0.00 84 1014.5
20260901062103 81 147 0.0 0.0 0.00 0.00 0.00 84 1014.6
20260901061600 81 151 0.0 0.0 0.00 0.00 0.00 84 1014.6
20260901061054 81 152 0.0 0.0 0.00 0.00 0.00 84 1014.8
20260901060549 81 160 0.0 0.0 0.00 0.00 0.00 84 1014.5
20260901060044 81 152 0.0 0.0 0.00 0.00 0.00 83 1014.7
20260901055539 81 151 0.0 0.0 0.00 0.00 0.00 83 1014.6
20260901055036 81 154 0.0 0.0 0.00 0.00 0.00 83 1014.5
20260901054533 82 156 0.0 0.0 0.00 0.00 0.00 83 1014.5
20260901054028 82 154 0.0 0.0 0.00 0.00 0.00 83 1014.4
20260901053524 82 152 0.0 0.0 0.00 0.00 0.00 82 1014.4
20260901053020 82 149 0.0 0.0 0.00 0.00 0.00 82 1014.4
20260901052520 82 146 0.0 0.0 0.00 0.00 0.00 82 1014.6
20260901052020 82 151 0.0 0.0 0.00 0.00 0.00 82 1014.6
20260901051515 82 148 0.0 1.0 0.00 0.00 0.00 82 1014.1
20260901051014 82 157 0.0 0.0 0.00 0.00 0.00 82 1014.3
20260901050509 82 153 0.0 1.0 0.00 0.00 0.00 82 1014.3
20260901050004 82 153 0.0 0.0 0.00 0.00 0.00 82 1014.1
20260901045459 82 165 0.0 0.0 0.00 0.00 0.00 82 1014.1
20260901044954 82 159 0.0 0.0 0.00 0.00 0.00 82 1014.3
20260901044449 82 124 1.0 2.0 0.00 0.00 0.00 82 1014.3
20260901043945 82 144 1.0 1.0 0.00 0.00 0.00 81 1014.3
20260901043442 82 121 1.0 1.0 0.00 0.00 0.00 81 1014.2
20260901042942 82 168 3.0 5.0 0.00 0.00 0.00 81 1014.0
20260901042441 82 158 0.0 0.0 0.00 0.00 0.00 81 1014.2
20260901041936 82 113 1.0 1.0 0.00 0.00 0.00 81 1013.9
20260901041432 82 142 1.0 2.0 0.00 0.00 0.00 82 1014.2
20260901040931 82 142 1.0 2.0 0.00 0.00 0.00 82 1014.3
20260901040426 82 157 1.0 1.0 0.00 0.00 0.00 84 1014.1
20260901035925 81 81 0.0 1.0 0.00 0.00 0.00 85 1014.2
20260901035424 81 140 0.0 0.0 0.00 0.00 0.00 86 1014.0
20260901034923 81 121 0.0 0.0 0.00 0.00 0.00 86 1013.9
20260901034418 82 139 0.0 0.0 0.00 0.00 0.00 86 1013.7
20260901033913 82 136 0.0 0.0 0.00 0.00 0.00 86 1013.9
20260901033412 82 135 0.0 0.0 0.00 0.00 0.00 85 1013.4
20260901032910 82 140 0.0 0.0 0.00 0.00 0.00 85 1013.4
20260901032410 82 140 0.0 0.0 0.00 0.00 0.00 85 1013.5
20260901031905 82 140 0.0 0.0 0.00 0.00 0.00 85 1013.3
20260901031401 82 140 0.0 0.0 0.00 0.00 0.00 85 1013.0
20260901030900 82 139 0.0 0.0 0.00 0.00 0.00 85 1013.1
20260901030356 82 139 0.0 0.0 0.00 0.00 0.00 85 1013.2
20260901025855 82 128 0.0 0.0 0.00 0.00 0.00 84 1013.0
20260901025350 82 143 0.0 0.0 0.00 0.00 0.00 84 1013.1
20260901024845 82 139 0.0 0.0 0.00 0.00 0.00 84 1013.1
20260901024344 82 119 0.0 0.0 0.00 0.00 0.00 84 1013.1
20260901023842 82 154 0.0 0.0 0.00 0.00 0.00 83 1013.1
20260901023338 82 127 0.0 0.0 0.00 0.00 0.00 83 1012.9
20260901022833 82 138 0.0 0.0 0.00 0.00 0.00 83 1013.0
20260901022329 82 135 0.0 0.0 0.00 0.00 0.00 83 1012.8
20260901021824 82 137 0.0 0.0 0.00 0.00 0.00 83 1012.8
20260901021320 82 138 0.0 0.0 0.00 0.00 0.00 83 1012.7
20260901020814 83 139 0.0 0.0 0.00 0.00 0.00 83 1012.8
20260901020309 83 137 0.0 0.0 0.00 0.00 0.00 82 1012.7
20260901015804 83 138 0.0 0.0 0.00 0.00 0.00 83 1012.8
20260901015300 83 140 0.0 0.0 0.00 0.00 0.00 83 1012.5
20260901014759 83 138 0.0 0.0 0.00 0.00 0.00 82 1012.7
20260901014255 83 140 0.0 0.0 0.00 0.00 0.00 82 1012.7
20260901013751 83 139 0.0 0.0 0.00 0.00 0.00 82 1012.6
20260901013246 83 139 0.0 0.0 0.00 0.00 0.00 82 1012.6
20260901012741 83 138 0.0 0.0 0.00 0.00 0.00 82 1012.5
20260901012241 83 139 0.0 0.0 0.00 0.00 0.00 82 1012.3
20260901011737 83 133 0.0 0.0 0.00 0.00 0.00 82 1012.5
20260901011232 84 134 0.0 0.0 0.00 0.00 0.00 82 1012.6
20260901010726 84 129 0.0 0.0 0.00 0.00 0.00 81 1012.1
20260901010221 84 139 0.0 0.0 0.00 0.00 0.00 80 1012.3
20260901005719 84 150 0.0 0.0 0.00 0.00 0.00 79 1012.2
20260901005215 84 148 0.0 0.0 0.00 0.00 0.00 79 1012.2
20260901004715 84 152 0.0 0.0 0.00 0.00 0.00 79 1012.2